[[{"header":{"parameterUnit":"m.s-1","parameterCategory":1,"la1":30.2991,"la2":30.254,"lo1":-89.0895,"lo2":-89.0444,"dy":0.0017,"dx":0.0017,"nx":28,"ny":28,"refTime":"2025-11-13T03:00:00:Z","depth":0,"parameterNumber":2,"parameterNumberName":"U-component_of_WINDS"},"data":[0,0,0,0,0,0,0,0,0,0,0,0,0,0,0,0,0,0,0,0,0,0,0,0,0,0,0,0,0,0,0,0,0,0,0,0,0,0,0,0,0,0,0,0,0,0,0,0,0,0,0,0,0,0,0,0,0,0,2.8359,2.8361,0,2.8561,2.8563,2.8565,2.8582,2.858,2.8578,2.8576,2.8784,2.8791,2.8799,0,0,0,0,0,0,0,0,0,0,0,0,0,2.7989,2.7995,2.8358,2.8361,2.8364,2.856,2.8563,2.8566,2.8583,2.858,2.8577,2.8575,2.8781,2.879,2.8799,0,0,0,0,0,0,0,0,0,0,0,0,0,2.8166,2.7998,2.8358,2.8396,2.8401,2.856,2.8563,2.8567,2.8583,2.858,2.8577,2.8574,2.8778,2.879,2.8801,2.8936,0,0,2.8835,2.884,0,0,0,0,0,0,0,0,2.8156,2.8179,2.8388,2.8393,2.84,2.8543,2.8509,2.8691,2.8584,2.8514,2.8576,2.8572,2.8706,2.8724,2.8769,2.8946,2.8955,2.8836,2.8843,2.8848,2.8851,0,0,0,0,0,0,0,2.8143,2.8171,2.8438,2.8391,2.8398,2.8403,2.8424,2.8543,2.8626,2.852,2.8522,2.8545,2.8709,2.8758,2.8774,2.8958,2.8836,2.8846,2.8853,2.8858,2.9257,2.926,0,0,0,0,0,0,2.8124,2.816,2.8432,2.8445,2.8267,2.8412,2.8436,2.85,2.8625,2.8641,2.8548,2.8545,2.874,2.876,2.8781,2.8947,2.8848,2.8859,2.8865,2.9253,2.9257,2.9262,0,0,0,0,0,0,2.8116,2.8148,2.8424,2.8303,2.8339,2.8422,2.8494,2.8506,2.8554,2.8646,2.8661,2.8582,2.8738,2.8765,2.8897,2.8955,2.8864,2.8874,2.9248,2.9254,2.9259,2.9281,0,0,0,0,0,0,2.8105,2.8145,2.8197,2.8304,2.8345,2.8536,2.8497,2.8512,2.8574,2.8572,2.8682,2.8697,2.8738,2.888,2.8909,2.8969,2.8883,2.9244,2.9251,2.9258,2.9275,2.9287,2.9296,0,0,0,0,0,2.8092,2.8195,2.8199,2.8232,2.8411,2.854,2.8563,2.8607,2.8578,2.8631,2.869,2.8694,2.8944,2.8894,2.8926,2.899,2.924,2.9249,2.9257,2.9271,2.9284,2.9296,0,0,0,0,0,0,2.8092,2.821,2.8216,2.8357,2.8438,2.8542,2.861,2.862,2.8712,2.8707,2.8758,2.8783,2.8913,2.8965,2.8907,2.9128,2.9089,2.9105,2.9089,2.9102,2.9113,2.9097,2.8892,0,0,0,0,0,2.8109,2.8203,2.83,2.8415,2.8456,2.8526,2.8584,2.8611,2.8697,2.8732,2.88,2.8885,2.8982,2.9046,2.9141,2.9284,2.9308,2.9344,2.9354,2.9362,2.9375,2.9454,2.9471,2.929,2.9289,2.9289,0,0,2.8144,2.8219,2.8276,2.8417,2.8483,2.858,2.8555,2.8658,2.873,2.8748,2.8876,2.893,2.9027,2.9165,2.923,2.9213,2.943,2.9373,2.9379,2.9387,2.9465,2.9482,2.9497,2.9295,2.9294,2.9293,0,0,2.8256,2.8323,2.8426,2.8493,2.8594,2.864,2.8664,2.8768,2.8804,2.8934,2.8949,2.9036,2.9204,2.9272,2.9329,2.9469,2.9476,2.9499,2.9553,2.963,2.9644,2.9657,2.9706,2.9723,2.9511,2.9511,2.9511,0,2.8286,2.8432,2.8477,2.858,2.8642,2.8663,2.8767,2.8831,2.8957,2.9,2.8979,2.919,2.9257,2.9411,2.9445,2.9491,2.9521,2.9486,2.9638,2.9651,2.9664,2.9712,2.973,2.9513,2.9513,2.9513,2.9513,0,2.8464,2.8565,2.8636,2.8757,2.8828,2.8931,2.8992,2.9058,2.908,2.9128,2.9261,2.9342,2.9454,2.9493,2.9516,2.9652,2.9638,2.9627,2.9589,2.9683,2.9728,2.9747,2.9516,2.9516,2.9515,2.9514,0,0,2.858,2.8727,2.8752,2.8807,2.892,2.8999,2.9104,2.9213,2.9268,2.9356,2.9444,2.9586,2.9577,2.9642,2.9672,2.974,2.9845,2.9721,2.9724,2.974,2.9999,3.0005,3.0025,2.9851,2.9854,2.9857,2.999,0,2.8705,2.889,2.8935,2.9094,2.9188,2.921,2.9301,2.938,2.9429,2.9516,2.957,2.9669,2.9651,2.969,2.9758,2.9817,2.9897,2.9809,2.9933,2.9937,2.9906,3.0049,3.0056,3.0178,3.0009,3.0012,3.0014,0,2.8874,2.8964,2.9132,2.9234,2.9275,2.9356,2.9459,2.9543,2.9634,2.9664,2.9737,2.9761,2.9871,2.9829,2.9981,2.992,2.9974,3.0012,3.0018,3.003,2.998,3.0064,3.0218,3.0235,3.0043,3.004,3.0038,0,2.894,2.9105,2.9226,2.9273,2.9395,2.9451,2.9505,2.9593,2.9655,2.9747,2.9788,2.9891,2.9948,3.0027,3.0079,3.0043,3.0227,3.0189,3.0255,3.0254,3.0292,3.0288,3.0455,3.0329,3.0329,3.0328,3.0328,0,2.9073,2.9175,2.9258,2.9333,2.9448,2.9499,2.9612,2.9665,2.9744,2.983,2.9856,2.9936,3.0,3.0089,3.013,3.025,3.0276,3.0304,3.0313,3.0301,3.0297,3.0336,3.0328,3.0333,3.0332,3.0331,3.033,0,2.9166,2.9226,2.936,2.9464,2.9493,2.9573,2.9662,2.9736,2.9786,2.9895,2.9923,3.0002,3.0108,3.0168,3.0302,3.033,3.0463,3.0469,3.0432,3.0436,3.0498,3.0491,3.0695,3.0724,3.0579,3.0581,3.0582,0,2.9246,2.9325,2.9438,2.9497,2.9551,2.9646,2.9711,2.9765,2.9831,2.9941,3.0002,3.011,3.0199,3.0368,3.0438,3.0541,3.0548,3.0613,3.0564,3.0549,3.0548,3.0542,3.055,3.062,3.0622,3.0623,3.0624,0,2.9381,2.9407,2.9498,2.9601,2.9677,2.976,2.9843,2.989,2.9958,3.0031,3.014,3.021,3.0347,3.0454,3.0562,3.0618,3.0632,3.0639,3.0659,3.0647,3.0621,3.0635,3.0453,3.0633,3.0632,3.0632,3.0631,3.0631,2.947,2.954,2.9631,2.9732,2.98,2.9877,2.9951,3.0011,3.0103,3.0218,3.0245,3.036,3.045,3.0597,3.0656,3.0747,3.0735,3.0765,3.0773,3.0779,3.078,3.0608,3.0767,3.0767,3.0767,3.0767,3.0767,0,2.9605,2.9665,2.9757,2.9872,2.9952,2.9959,3.0051,3.0118,3.0218,3.0301,3.0388,3.0514,3.0618,3.0696,3.0803,3.086,3.087,3.0887,3.0882,3.0895,3.0785,3.0756,3.0877,3.0877,3.0877,3.0877,3.0877,3.0877,2.9685,2.9805,2.9842,2.9997,3.0056,3.0168,3.022,3.0291,3.0358,3.0496,3.0583,3.0633,3.0715,3.0827,3.0924,3.0944,3.0982,3.0997,3.1018,3.0914,3.0902,3.0891,3.0864,3.1005,3.1005,3.112,3.1121,3.1122]},{"header":{"parameterUnit":"m.s-1","parameterCategory":1,"la1":30.2991,"la2":30.254,"lo1":-89.0895,"lo2":-89.0444,"dy":0.0017,"dx":0.0017,"nx":28,"ny":28,"refTime":"2025-11-13T03:00:00:Z","depth":0,"parameterNumber":3,"parameterNumberName":"V-component_of_WINDS"},"data":[0,0,0,0,0,0,0,0,0,0,0,0,0,0,0,0,0,0,0,0,0,0,0,0,0,0,0,0,0,0,0,0,0,0,0,0,0,0,0,0,0,0,0,0,0,0,0,0,0,0,0,0,0,0,0,0,0,0,2.2747,2.2748,0,2.2869,2.287,2.2872,2.2863,2.2862,2.286,2.2858,2.2979,2.2984,2.2989,0,0,0,0,0,0,0,0,0,0,0,0,0,2.2502,2.2507,2.2747,2.2749,2.275,2.2869,2.2871,2.2872,2.2864,2.2862,2.2859,2.2857,2.2978,2.2983,2.2989,0,0,0,0,0,0,0,0,0,0,0,0,0,2.2615,2.2508,2.2747,2.276,2.2763,2.2869,2.2871,2.2873,2.2864,2.2862,2.2859,2.2856,2.2976,2.2983,2.299,2.3089,0,0,2.3012,2.3016,0,0,0,0,0,0,0,0,2.2608,2.2624,2.2757,2.276,2.2762,2.2848,2.2829,2.2945,2.2865,2.2826,2.2858,2.2855,2.2938,2.2948,2.2977,2.3095,2.31,2.3013,2.3018,2.3021,2.3023,0,0,0,0,0,0,0,2.2601,2.2619,2.2795,2.2759,2.2762,2.2759,2.2772,2.2851,2.2895,2.2829,2.2829,2.2843,2.2939,2.297,2.2979,2.3102,2.3013,2.3019,2.3024,2.3027,2.3306,2.3309,0,0,0,0,0,0,2.259,2.2612,2.2791,2.2799,2.2677,2.2765,2.278,2.2823,2.2894,2.2902,2.2845,2.2842,2.2958,2.2971,2.2984,2.3104,2.3021,2.3028,2.3032,2.3303,2.3307,2.331,0,0,0,0,0,0,2.2585,2.2607,2.2786,2.2706,2.2728,2.2773,2.2821,2.2827,2.2858,2.2907,2.2914,2.2869,2.2957,2.2973,2.3063,2.3108,2.3031,2.3038,2.33,2.3304,2.3309,2.3346,0,0,0,0,0,0,2.2578,2.2605,2.2644,2.2707,2.2733,2.2865,2.2824,2.2832,2.2871,2.2869,2.2931,2.2939,2.2956,2.3052,2.307,2.3117,2.3043,2.3296,2.3302,2.3307,2.3341,2.3351,2.336,0,0,0,0,0,2.257,2.2649,2.2646,2.2668,2.2783,2.2868,2.2883,2.2902,2.2875,2.2914,2.2945,2.2937,2.31,2.3061,2.3082,2.3131,2.3293,2.33,2.3307,2.3337,2.3349,2.336,0,0,0,0,0,0,2.259,2.2657,2.2655,2.2757,2.2807,2.2867,2.2917,2.2915,2.2972,2.2967,2.2987,2.3001,2.3091,2.312,2.3076,2.323,2.3193,2.3204,2.3209,2.3221,2.323,2.3222,2.3049,0,0,0,0,0,2.2606,2.2671,2.2726,2.2811,2.2836,2.2872,2.291,2.292,2.2972,2.2993,2.303,2.308,2.3142,2.3183,2.3243,2.3344,2.3357,2.3388,2.3398,2.3405,2.3415,2.347,2.3484,2.3332,2.3332,2.3332,0,0,2.264,2.2685,2.2725,2.2816,2.2856,2.2922,2.289,2.2961,2.3009,2.3003,2.3091,2.312,2.3176,2.3272,2.3316,2.3299,2.346,2.3414,2.342,2.3425,2.3479,2.3493,2.3506,2.3337,2.3336,2.3336,0,0,2.2737,2.2778,2.2853,2.2894,2.2955,2.2978,2.2996,2.3056,2.3075,2.3163,2.316,2.3217,2.3324,2.3365,2.3399,2.3509,2.3504,2.3528,2.3578,2.3632,2.3644,2.3654,2.3694,2.3708,2.3537,2.3537,2.3538,0,2.2772,2.2872,2.2891,2.2963,2.3003,2.3001,2.3077,2.3115,2.3192,2.3218,2.3198,2.3332,2.337,2.3475,2.3502,2.353,2.355,2.3522,2.3641,2.3652,2.3662,2.3699,2.3714,2.354,2.354,2.3539,2.3539,0,2.2912,2.2981,2.3034,2.311,2.3155,2.3228,2.3257,2.3301,2.3306,2.3331,2.342,2.3466,2.3535,2.356,2.3566,2.3666,2.3653,2.3637,2.3599,2.3679,2.3714,2.3729,2.3544,2.3543,2.3542,2.3541,0,0,2.3025,2.311,2.313,2.3164,2.3231,2.3284,2.3356,2.3425,2.3461,2.3514,2.3574,2.3664,2.3649,2.3688,2.3698,2.3745,2.383,2.3723,2.3724,2.3741,2.3942,2.3954,2.3971,2.3826,2.3828,2.3831,2.3937,0,2.3129,2.3259,2.3278,2.3392,2.3455,2.3454,2.3517,2.3564,2.3588,2.3645,2.3671,2.3735,2.371,2.3734,2.378,2.381,2.387,2.3802,2.3881,2.3884,2.3868,2.399,2.4003,2.4102,2.3951,2.3953,2.3955,0,2.3267,2.3325,2.3446,2.3503,2.3531,2.3587,2.3651,2.3705,2.3758,2.3772,2.3816,2.382,2.3893,2.3852,2.3952,2.3906,2.3939,2.3958,2.3962,2.3971,2.3925,2.4002,2.4133,2.4148,2.3977,2.3975,2.3974,0,2.3338,2.3446,2.3532,2.3561,2.363,2.367,2.37,2.375,2.379,2.3845,2.3871,2.3933,2.3968,2.4015,2.4035,2.4004,2.4134,2.4095,2.4147,2.4147,2.4176,2.4174,2.4315,2.4196,2.4196,2.4196,2.4195,0,2.3452,2.3526,2.3565,2.3618,2.37,2.372,2.3801,2.3829,2.3874,2.3931,2.3933,2.3986,2.401,2.4066,2.4082,2.4163,2.4178,2.4191,2.4194,2.4191,2.419,2.4214,2.4208,2.42,2.4199,2.4198,2.4197,0,2.3546,2.3575,2.3669,2.3727,2.3743,2.3801,2.385,2.39,2.3924,2.3997,2.4015,2.4052,2.4118,2.4143,2.4224,2.4234,2.4328,2.4325,2.4311,2.4312,2.4363,2.4358,2.4525,2.4548,2.4413,2.4415,2.4416,0,2.3617,2.3674,2.3739,2.3778,2.381,2.3873,2.3914,2.3935,2.3977,2.4041,2.4083,2.415,2.4205,2.4311,2.4344,2.4405,2.4405,2.4459,2.4414,2.4409,2.4406,2.4403,2.4408,2.4468,2.4469,2.447,2.4471,0,2.3741,2.3752,2.3812,2.3877,2.3926,2.3977,2.4027,2.4059,2.4087,2.4134,2.4203,2.4245,2.4328,2.4394,2.4457,2.4486,2.4483,2.4485,2.45,2.4498,2.4487,2.4494,2.4334,2.4481,2.448,2.4479,2.4479,2.4478,2.3826,2.3876,2.393,2.3996,2.4036,2.4082,2.4133,2.4163,2.4221,2.4292,2.43,2.4374,2.4423,2.4507,2.4539,2.4596,2.4581,2.4604,2.461,2.4615,2.4619,2.4478,2.4608,2.4607,2.4607,2.4607,2.4607,0,2.395,2.3984,2.4044,2.4115,2.4167,2.416,2.4215,2.4258,2.4324,2.437,2.4424,2.4503,2.4566,2.4604,2.4668,2.4706,2.4706,2.4722,2.4719,2.4726,2.4628,2.4609,2.4721,2.472,2.472,2.472,2.472,2.472,2.402,2.4106,2.4123,2.4227,2.426,2.4334,2.4366,2.4408,2.4446,2.4534,2.4588,2.4612,2.4655,2.4721,2.4779,2.4788,2.4811,2.4829,2.4836,2.4745,2.4733,2.4722,2.4704,2.4833,2.4833,2.493,2.493,2.4931]}]]